Home   Weather   Offenburg   Past weeks

Flag for Germany Past Weather in Offenburg, Baden-Württemberg, Germany — Yesterday and Last 2 Weeks

Now
75 °F

Passing clouds.


Feels Like: 77 °F
Forecast: 51 / 76 °F
Wind: 5 mph from West

Location: Lahr - CAN-AFB

Current Time: May 22, 2017 at 5:45:15 pm

Latest Report: May 22, 2017 at 4:50 pm


Visibility: N/A

Pressure: 30.01 "Hg

Humidity: 36%

Dew Point: 46 °F

Location of OffenburgLocation

Past Weather in Offenburg — Graph

°F

Offenburg Temperature Yesterday

Maximum temperature yesterday: 66 °F (at 1:20 pm)
Minimum temperature yesterday: 45 °F (at 6:50 am)
Average temperature yesterday: 57 °F

High & Low Weather Summary for the Past Weeks

 TemperatureHumidityPressure
High84 °F (May 17, 4:50 pm)100% (May 8, 8:20 am)30.42 "Hg (May 8, 8:20 am)
Low43 °F (May 10, 7:50 am)30% (May 17, 6:20 pm)29.47 "Hg (May 11, 5:50 pm)
Average63 °F67%30.00 "Hg
* Reported May 8 8:20 am — May 22 4:20 pm, Offenburg. Weather by CustomWeather, © 2017

Note: Actual official high and low records may vary slightly from our data, if they occured in-between our weather recording intervals... More about our weather records

Advertising

Offenburg Weather History for the Previous 24 Hours

Scroll right to see more
 ConditionsComfort  
Time TempWeatherWind HumidityBarometerVisibility
4:20 pm
Mon, May 22
75 °FPassing clouds.5 mph36%30.01 "HgN/A
3:50 pm73 °FSunny.3 mph41%30.04 "Hg10 mi
3:20 pm73 °FSunny.6 mph44%30.04 "Hg10 mi
2:50 pm73 °FPassing clouds.5 mph44%30.04 "HgN/A
2:20 pm73 °FSunny.3 mph41%30.04 "Hg10 mi
1:50 pm72 °FSunny.2 mph41%30.04 "Hg10 mi
1:20 pm72 °FPassing clouds.5 mph50%30.07 "HgN/A
12:50 pm72 °FSunny.3 mph53%30.07 "Hg10 mi
12:20 pm68 °FSunny.3 mph53%30.07 "Hg10 mi
11:50 am68 °FSunny.2 mph56%30.09 "Hg10 mi
11:20 am66 °FSunny.3 mph60%30.09 "Hg10 mi
10:50 am66 °FSunny.2 mph64%30.09 "Hg10 mi
10:20 am64 °FSunny.3 mph64%30.09 "Hg10 mi
9:50 am63 °FSunny.2 mph73%30.09 "Hg10 mi
9:20 am61 °FSunny.2 mph72%30.09 "Hg10 mi
8:50 am59 °FSunny.2 mph77%30.09 "Hg10 mi
8:20 am57 °FSunny.2 mph77%30.09 "Hg10 mi
7:50 am54 °FSunny.1 mph88%30.09 "Hg10 mi
7:20 am52 °FSunny.1 mph100%30.09 "Hg10 mi
Weather by CustomWeather, © 2017

See weather overviewHow to use our weather pages